Regional Weather Roundup
Issued by NWS

Home | Current Version | Previous Version | Text Only | Print | Product List | Glossary On
Versions: 1 2 3 4 5 6 7 8 9 10 11 12 13 14 15 16 17 18 19 20 21 22 23 24 25 26 27
000
ASUS42 KKEY 041310
RWRKEY

FLORIDA REGIONAL WEATHER ROUNDUP FOR THE FLORIDA KEYS
NATIONAL WEATHER SERVICE KEY WEST FLORIDA
800 AM EST SUN DEC 04 2016

...SOUTH FLORIDA AND THE KEYS...

CITY           SKY/WX    TMP DP  RH WIND       PRES   REMARKS
FORT MYERS     SUNNY     68  64  87 E9        30.05S
SW REGIONAL AP SUNNY     66  63  90 E9        30.06R
NAPLES         SUNNY     68  64  87 E8        30.06R
MIAMI          PTSUNNY   75  67  76 E9        30.06R
WEST KENDALL   PTSUNNY   76  68  76 E14       30.05S
HOMESTEAD      PTSUNNY   75  70  82 E10       30.04S
MARATHON       SUNNY     79  71  76 E7        30.02R
BOCA CHICA NAS MOSUNNY   77  71  82 E13       30.01R
KEY WEST INTL  SUNNY     78  73  84 E14       30.02R

...INTERNATIONAL WEATHER...

CITY           SKY/WX    TMP DP  RH WIND       PRES   REMARKS
NASSAU BAHAMAS MOSUNNY   75  66  73 E8        30.07R
CANCUN MEXICO  MOCLDY    81  75  83 E9        29.89R
COZUMEL MEXICO PTCLDY    79  75  89 SE7       29.87R

ADJACENT COASTAL WATERS...

STATION/POSITION TIME  SKY/WX   TEMP    WIND        PRES    WAVE
                                AIR SEA DIR/SP/G            HT/PER
                 (UTC)          (F)     (DEG/KT/KT) (MB)    (FT/S)
PULASKI SHOAL LI 1200            76      90/ 18/ 20 1015.8R
SAND KEY         1250            78     120/ 19/ 21 1016.6R
LONG KEY         1200            77 76  100/ 13/ 14 1016.8R
FOWEY ROCKS      1200            76 77   90/ 18/ 20 1018.1R

$$




USA.gov is the U.S. government's official web portal to all federal, state and local government web resources and services.